Location: Clarion
(42.7316°N, 93.7330°W)
Time: 09:43:26
(UTC+00:00)

Meteor 2-2 Rocket - Pass Details

Date: 22 April 2026
Orbit: 852 x 927 km, 81.3° (Epoch: 17 May)

Event Time Altitude Azimuth Distance (km) Brightness Sun altitude
Exits shadow 07:54:12 67° 358° (N) 925 4.4 -30.4°
Drops below altitude 10° 07:59:03 10° 9° (N) 2,490 7.4 -29.9°
Sets 08:01:29 0° 10° (N) 3,432 8.4 -29.7°
